This is the latest recevied weather packets stored in our database for station/object WW5JC. If no packets are shown the sender has not sent any weather packets the latest 10 day(s).
| Time | Temp. | Humidity | Pressure | Rain* | Wind** | Luminosity | Snow |
|---|---|---|---|---|---|---|---|
| 1777844877 | 27.78° C | 42% | 1017.6 hPa | 0 mm | - | 413 W/m² | - |
| 1777844574 | 27.22° C | 44% | 1017.9 hPa | 0 mm | - | 431 W/m² | - |
| 1777844272 | 27.78° C | 44% | 1017.8 hPa | 0 mm | - | 114 W/m² | - |
| 1777843969 | 27.78° C | 46% | 1018 hPa | 0 mm | - | 481 W/m² | - |
| 1777843665 | 27.22° C | 46% | 1018 hPa | 0 mm | - | 526 W/m² | - |
| 1777843363 | 27.22° C | 45% | 1018.2 hPa | 0 mm | - | 312 W/m² | - |
| 1777843061 | 27.22° C | 42% | 1018.2 hPa | 0 mm | - | 168 W/m² | - |
| 1777842752 | 27.78° C | 42% | 1018.2 hPa | 0 mm | - | 465 W/m² | - |
| 1777842447 | 27.78° C | 44% | 1018.3 hPa | 0 mm | - | 573 W/m² | - |
| 1777842145 | 27.22° C | 44% | 1018.2 hPa | 0 mm | - | 550 W/m² | - |
| 1777841840 | 27.78° C | 42% | 1018.4 hPa | 0 mm | - | 554 W/m² | - |
| 1777841536 | 27.78° C | 43% | 1018.5 hPa | 0 mm | - | 560 W/m² | - |
| 1777841233 | 27.22° C | 47% | 1018.4 hPa | 0 mm | - | 615 W/m² | - |
| 1777840931 | 26.11° C | 47% | 1018.6 hPa | 0 mm | - | 582 W/m² | - |
| 1777840628 | 27.22° C | 42% | 1018.7 hPa | 0 mm | - | 124 W/m² | - |
| 1777840326 | 27.78° C | 46% | 1019 hPa | 0 mm | - | 631 W/m² | - |
| 1777840023 | 27.22° C | 43% | 1019 hPa | 0 mm | - | 644 W/m² | - |
| 1777839720 | 27.22° C | 50% | 1019.1 hPa | 0 mm | - | 649 W/m² | - |
| 1777839418 | 27.22° C | 45% | 1019.2 hPa | 0 mm | - | 659 W/m² | - |
| 1777839115 | 27.78° C | 43% | 1019.3 hPa | 0 mm | - | 672 W/m² | - |
| 1777838811 | 26.67° C | 44% | 1019.3 hPa | 0 mm | - | 757 W/m² | - |
| 1777838508 | 27.78° C | 49% | 1019.4 hPa | 0 mm | - | 173 W/m² | - |
| 1777838204 | 26.67° C | 47% | 1019.6 hPa | 0 mm | - | 719 W/m² | - |
| 1777837901 | 27.78° C | 48% | 1019.6 hPa | 0 mm | - | 169 W/m² | - |
| 1777837599 | 26.67° C | 45% | 1019.7 hPa | 0 mm | - | 536 W/m² | - |
* Rain latest hour (hover to see other rain measurements)
** Current wind speed in m/s (hover to see current wind gust speed)